GW0484 Weather Reports


Display with metric or nautical units.
time (UTC)temp
F
wind
direction
speed
MPH
gust
MPH
rain 1hr
in
rain 24hr
in
rain mn
in
humidity
%
barometer
mb
20260902214946 83 200 6.0 7.0 0.00 0.00 0.00 31 998.6
20260902214444 83 139 6.0 8.0 0.00 0.00 0.00 31 998.6
20260902213938 83 168 9.0 10.0 0.00 0.00 0.00 30 998.4
20260902213435 85 168 8.0 11.0 0.00 0.00 0.00 29 998.4
20260902212933 85 168 8.0 10.0 0.00 0.00 0.00 28 998.6
20260902212430 85 179 6.0 8.0 0.00 0.00 0.00 28 998.5
20260902211926 84 101 6.0 7.0 0.00 0.00 0.00 29 998.7
20260902211421 85 168 4.0 6.0 0.00 0.00 0.00 30 998.6
20260902210917 85 197 3.0 5.0 0.00 0.00 0.00 29 998.8
20260902210416 84 186 4.0 6.0 0.00 0.00 0.00 29 999.0
20260902205914 84 182 2.0 3.0 0.00 0.00 0.00 30 998.9
20260902205409 84 161 2.0 3.0 0.00 0.00 0.00 30 999.2
20260902204905 84 118 4.0 5.0 0.00 0.00 0.00 31 999.2
20260902204359 84 176 3.0 6.0 0.00 0.00 0.00 30 999.7
20260902203855 83 111 5.0 6.0 0.00 0.00 0.00 31 999.9
20260902203350 82 128 7.0 8.0 0.00 0.00 0.00 31 999.7
20260902202844 83 124 4.0 5.0 0.00 0.00 0.00 32 999.6
20260902202340 83 194 3.0 5.0 0.00 0.00 0.00 32 1000.0
20260902201837 82 129 0.0 1.0 0.00 0.00 0.00 32 1000.1
20260902201336 80 184 2.0 2.0 0.00 0.00 0.00 34 1000.2
20260902200831 80 215 6.0 8.0 0.00 0.00 0.00 34 1000.2
20260902200327 80 175 5.0 6.0 0.00 0.00 0.00 34 1000.4
20260902195822 80 132 6.0 8.0 0.00 0.00 0.00 35 1000.4
20260902195321 79 160 4.0 5.0 0.00 0.00 0.00 35 1000.4
20260902194816 80 201 7.0 8.0 0.00 0.00 0.00 35 1000.4
20260902194311 80 155 7.0 9.0 0.00 0.00 0.00 34 1000.5
20260902193807 81 194 6.0 7.0 0.00 0.00 0.00 34 1000.7
20260902193302 80 182 6.0 6.0 0.00 0.00 0.00 34 1000.7
20260902192800 80 133 2.0 2.0 0.00 0.00 0.00 35 1000.7
20260902192300 79 155 4.0 5.0 0.00 0.00 0.00 36 1001.1
20260902191759 78 139 5.0 5.0 0.00 0.00 0.00 37 1000.9
20260902191254 78 186 6.0 9.0 0.00 0.00 0.00 37 1000.9
20260902190750 77 169 8.0 9.0 0.00 0.00 0.00 37 1000.8
20260902190249 78 171 6.0 7.0 0.00 0.00 0.00 38 1000.8
20260902185745 78 168 6.0 8.0 0.00 0.00 0.00 38 1001.0
20260902185240 78 181 9.0 10.0 0.00 0.00 0.00 38 1001.1
20260902184736 78 158 3.0 3.0 0.00 0.00 0.00 38 1001.3
20260902184231 78 190 7.0 7.0 0.00 0.00 0.00 38 1001.3
20260902183727 78 162 4.0 6.0 0.00 0.00 0.00 37 1001.2
20260902183223 78 175 8.0 10.0 0.00 0.00 0.00 38 1001.1
20260902182719 78 169 5.0 6.0 0.00 0.00 0.00 39 1001.3
20260902182215 78 164 5.0 8.0 0.00 0.00 0.00 39 1001.4
20260902181712 78 172 4.0 5.0 0.00 0.00 0.00 39 1001.8
20260902181211 78 264 5.0 6.0 0.00 0.00 0.00 39 1001.9
20260902180706 76 184 3.0 3.0 0.00 0.00 0.00 42 1001.8
20260902180201 75 170 3.0 3.0 0.00 0.00 0.00 43 1001.6
20260902175702 75 183 5.0 7.0 0.00 0.00 0.00 42 1002.1
20260902175158 75 176 4.0 5.0 0.00 0.00 0.00 43 1002.1
20260902174654 75 178 6.0 8.0 0.00 0.00 0.00 44 1002.0
20260902174149 75 178 4.0 5.0 0.00 0.00 0.00 43 1002.1
20260902173644 76 196 3.0 5.0 0.00 0.00 0.00 43 1001.8
20260902173139 76 174 8.0 11.0 0.00 0.00 0.00 42 1002.1
20260902172633 76 215 7.0 9.0 0.00 0.00 0.00 43 1002.1
20260902172132 75 160 6.0 7.0 0.00 0.00 0.00 44 1002.4
20260902171628 74 165 9.0 11.0 0.00 0.00 0.00 44 1002.3
20260902171124 74 178 5.0 7.0 0.00 0.00 0.00 46 1002.4
20260902170620 74 157 8.0 10.0 0.00 0.00 0.00 46 1002.1
20260902170115 73 152 3.0 3.0 0.00 0.00 0.00 46 1002.2
20260902165615 73 161 9.0 11.0 0.00 0.00 0.00 47 1002.1
20260902165109 73 135 8.0 10.0 0.00 0.00 0.00 46 1002.4
20260902164604 73 174 3.0 5.0 0.00 0.00 0.00 48 1002.2
20260902164103 73 187 5.0 6.0 0.00 0.00 0.00 47 1002.2
20260902163559 71 168 3.0 3.0 0.00 0.00 0.00 49 1002.4
20260902163057 71 203 3.0 5.0 0.00 0.00 0.00 50 1002.1
20260902162551 71 165 4.0 5.0 0.00 0.00 0.00 50 1002.2
20260902162046 71 171 3.0 3.0 0.00 0.00 0.00 49 1002.5
20260902161546 72 153 3.0 3.0 0.00 0.00 0.00 50 1002.4
20260902161043 72 177 4.0 5.0 0.00 0.00 0.00 50 1002.3
20260902160538 71 163 4.0 5.0 0.00 0.00 0.00 52 1002.2
20260902160033 71 157 2.0 2.0 0.00 0.00 0.00 52 1002.2
20260902155526 70 154 2.0 3.0 0.00 0.00 0.00 52 1002.5
20260902155025 69 157 3.0 3.0 0.00 0.00 0.00 52 1002.4
20260902154521 69 138 1.0 1.0 0.00 0.00 0.00 55 1002.7
20260902154016 69 224 3.0 3.0 0.00 0.00 0.00 54 1002.4
20260902153514 71 235 5.0 6.0 0.00 0.00 0.00 52 1002.7
20260902153010 70 122 0.0 0.0 0.00 0.00 0.00 53 1002.9
20260902152506 68 114 2.0 2.0 0.00 0.00 0.00 56 1002.8
20260902152001 66 130 0.0 0.0 0.00 0.00 0.00 58 1002.9
20260902151457 66 121 1.0 2.0 0.00 0.00 0.00 59 1003.0
20260902150956 66 132 1.0 1.0 0.00 0.00 0.00 59 1003.2
20260902150452 65 136 2.0 2.0 0.00 0.00 0.00 61 1003.2
20260902145952 64 138 0.0 1.0 0.00 0.00 0.00 60 1003.1
20260902145447 63 135 0.0 1.0 0.00 0.00 0.00 62 1003.1
20260902144942 61 161 1.0 2.0 0.00 0.00 0.00 66 1003.3
20260902144438 60 151 3.0 3.0 0.00 0.00 0.00 72 1003.3
20260902143938 59 148 2.0 2.0 0.00 0.00 0.00 73 1003.3
20260902143433 59 139 1.0 1.0 0.00 0.00 0.00 73 1003.2
20260902142928 58 117 1.0 2.0 0.00 0.00 0.00 74 1003.4
20260902142425 58 124 0.0 0.0 0.00 0.00 0.00 72 1003.6
20260902141920 58 125 0.0 0.0 0.00 0.00 0.00 73 1003.4
20260902141415 57 125 0.0 0.0 0.00 0.00 0.00 71 1003.4
20260902140914 57 125 0.0 0.0 0.00 0.00 0.00 74 1003.5
20260902140410 57 125 0.0 0.0 0.00 0.00 0.00 73 1003.6
20260902135909 57 125 0.0 0.0 0.00 0.00 0.00 73 1003.6
20260902135406 56 125 0.0 0.0 0.00 0.00 0.00 73 1003.9
20260902134904 57 125 0.0 0.0 0.00 0.00 0.00 74 1003.4
20260902134400 57 125 0.0 0.0 0.00 0.00 0.00 73 1003.6
20260902133855 56 123 0.0 0.0 0.00 0.00 0.00 73 1003.6
20260902133355 56 125 0.0 0.0 0.00 0.00 0.00 72 1003.5
20260902132850 56 125 0.0 0.0 0.00 0.00 0.00 72 1003.5
20260902132345 56 125 0.0 0.0 0.00 0.00 0.00 72 1003.4
20260902131840 56 124 0.0 0.0 0.00 0.00 0.00 74 1003.5
20260902131337 55 124 0.0 0.0 0.00 0.00 0.00 73 1003.3
20260902130836 55 123 0.0 0.0 0.00 0.00 0.00 76 1003.3
20260902130332 54 127 0.0 0.0 0.00 0.00 0.00 78 1003.1
20260902125827 54 118 0.0 1.0 0.00 0.00 0.00 78 1003.3
20260902125323 54 121 0.0 0.0 0.00 0.00 0.00 76 1003.3
20260902124819 54 117 1.0 1.0 0.00 0.00 0.00 77 1003.4
20260902124315 53 138 1.0 1.0 0.00 0.00 0.00 76 1003.5
20260902123809 53 124 0.0 0.0 0.00 0.00 0.00 76 1003.4
20260902123306 54 139 0.0 0.0 0.00 0.00 0.00 77 1003.4
20260902122804 54 151 1.0 1.0 0.00 0.00 0.00 77 1003.5
20260902122300 53 139 0.0 0.0 0.00 0.00 0.00 77 1003.3
20260902121754 54 123 0.0 1.0 0.00 0.00 0.00 76 1003.2
20260902121250 54 105 2.0 2.0 0.00 0.00 0.00 77 1002.9
20260902120745 54 131 0.0 0.0 0.00 0.00 0.00 77 1002.8
20260902120241 54 89 2.0 2.0 0.00 0.00 0.00 77 1002.8
20260902115736 54 116 0.0 0.0 0.00 0.00 0.00 77 1002.9
20260902115232 54 114 0.0 0.0 0.00 0.00 0.00 77 1002.8
20260902114728 54 129 0.0 0.0 0.00 0.00 0.00 77 1003.0
20260902114223 55 138 0.0 1.0 0.00 0.00 0.00 76 1003.3
20260902113718 55 101 2.0 3.0 0.00 0.00 0.00 75 1003.3
20260902113213 57 127 0.0 0.0 0.00 0.00 0.00 73 1003.3
20260902112713 57 289 3.0 3.0 0.00 0.00 0.00 70 1003.4
20260902112210 56 205 5.0 6.0 0.00 0.00 0.00 72 1003.6
20260902111705 56 262 5.0 6.0 0.00 0.00 0.00 74 1003.6
20260902111201 56 252 4.0 5.0 0.00 0.00 0.00 75 1003.6
20260902110656 56 241 4.0 5.0 0.00 0.00 0.00 75 1003.5
20260902110153 55 233 4.0 5.0 0.00 0.00 0.00 74 1003.6
20260902105652 56 243 5.0 6.0 0.00 0.00 0.00 73 1003.5
20260902105148 55 233 4.0 5.0 0.00 0.00 0.00 74 1003.7
20260902104643 55 247 4.0 6.0 0.00 0.00 0.00 74 1003.7
20260902104138 56 213 4.0 5.0 0.00 0.00 0.00 73 1003.7
20260902103637 56 219 5.0 7.0 0.00 0.00 0.00 72 1003.7
20260902103133 56 226 3.0 5.0 0.00 0.00 0.00 70 1004.0
20260902102629 56 239 5.0 7.0 0.00 0.00 0.00 71 1003.7
20260902102126 56 237 8.0 11.0 0.00 0.00 0.00 72 1003.6
20260902101621 55 208 5.0 6.0 0.00 0.00 0.00 74 1003.7
20260902101120 54 202 3.0 5.0 0.00 0.00 0.00 73 1003.6
20260902100615 53 160 2.0 2.0 0.00 0.00 0.00 72 1003.5
20260902100110 54 147 1.0 1.0 0.00 0.00 0.00 69 1003.4
20260902095609 54 149 1.0 2.0 0.00 0.00 0.00 68 1003.4
20260902095108 55 166 2.0 3.0 0.00 0.00 0.00 66 1003.5
20260902094604 56 144 1.0 1.0 0.00 0.00 0.00 65 1003.1
20260902094100 57 157 3.0 3.0 0.00 0.00 0.00 63 1003.3
20260902093600 57 148 4.0 6.0 0.00 0.00 0.00 63 1003.4
20260902093054 58 154 6.0 7.0 0.00 0.00 0.00 62 1003.5
20260902092549 59 161 3.0 3.0 0.00 0.00 0.00 61 1003.4
20260902092044 59 164 2.0 2.0 0.00 0.00 0.00 59 1003.4
20260902091534 59 160 4.0 5.0 0.00 0.00 0.00 59 1003.3
20260902091029 59 139 0.0 1.0 0.00 0.00 0.00 59 1003.2
20260902090520 59 121 3.0 3.0 0.00 0.00 0.00 59 1003.4
20260902090019 59 142 2.0 2.0 0.00 0.00 0.00 59 1003.4
20260902085519 59 149 2.0 2.0 0.00 0.00 0.00 60 1003.3
20260902085014 59 138 1.0 1.0 0.00 0.00 0.00 59 1003.3
20260902084510 59 132 0.0 1.0 0.00 0.00 0.00 59 1003.6
20260902084005 60 139 0.0 1.0 0.00 0.00 0.00 58 1003.6
20260902083501 59 149 2.0 2.0 0.00 0.00 0.00 58 1003.7
20260902082955 59 137 1.0 1.0 0.00 0.00 0.00 59 1003.7
20260902082451 59 136 1.0 1.0 0.00 0.00 0.00 57 1003.7
20260902081947 58 154 1.0 2.0 0.00 0.00 0.00 59 1003.6
20260902081444 57 134 0.0 1.0 0.00 0.00 0.00 61 1003.5
20260902080938 58 133 0.0 0.0 0.00 0.00 0.00 61 1003.6
20260902080434 58 140 0.0 0.0 0.00 0.00 0.00 61 1003.7
20260902075933 58 137 1.0 1.0 0.00 0.00 0.00 61 1003.7
20260902075430 58 156 2.0 2.0 0.00 0.00 0.00 59 1003.9
20260902074925 59 139 1.0 2.0 0.00 0.00 0.00 60 1003.7
20260902074420 59 149 1.0 1.0 0.00 0.00 0.00 59 1003.7
20260902073915 59 172 2.0 2.0 0.00 0.00 0.00 59 1003.6
20260902073411 60 163 2.0 2.0 0.00 0.00 0.00 56 1003.7
20260902072907 60 173 3.0 3.0 0.00 0.00 0.00 55 1003.6
20260902072403 61 155 2.0 2.0 0.00 0.00 0.00 55 1003.6
20260902071859 62 135 2.0 2.0 0.00 0.00 0.00 53 1003.6
20260902071358 62 161 3.0 3.0 0.00 0.00 0.00 53 1003.5
20260902070855 62 150 1.0 1.0 0.00 0.00 0.00 53 1003.7
20260902070350 63 132 2.0 3.0 0.00 0.00 0.00 52 1003.4
20260902065848 63 123 1.0 1.0 0.00 0.00 0.00 50 1003.7
20260902065344 62 121 2.0 2.0 0.00 0.00 0.00 52 1003.5
20260902064839 63 124 4.0 5.0 0.00 0.00 0.00 52 1003.5
20260902064335 64 130 3.0 3.0 0.00 0.00 0.00 50 1003.4
20260902063831 64 131 5.0 6.0 0.00 0.00 0.00 49 1003.6
20260902063331 64 108 6.0 7.0 0.00 0.00 0.00 48 1003.4
20260902062825 65 115 6.0 7.0 0.00 0.00 0.00 48 1003.7
20260902062320 65 133 6.0 8.0 0.00 0.00 0.00 48 1003.6
20260902061819 65 118 5.0 7.0 0.00 0.00 0.00 48 1003.6
20260902061315 65 121 4.0 5.0 0.00 0.00 0.00 48 1003.7
20260902060811 65 105 5.0 7.0 0.00 0.00 0.00 48 1003.7
20260902060307 65 118 5.0 7.0 0.00 0.00 0.00 48 1003.9
20260902055802 65 108 5.0 6.0 0.00 0.00 0.00 48 1003.7
20260902055259 65 115 5.0 6.0 0.00 0.00 0.00 48 1003.9
20260902054758 65 130 4.0 5.0 0.00 0.00 0.00 48 1004.0
20260902054254 65 98 4.0 5.0 0.00 0.00 0.00 48 1003.7
20260902053749 65 99 5.0 6.0 0.00 0.00 0.00 48 1004.0
20260902053249 65 112 3.0 3.0 0.00 0.00 0.00 48 1004.0
20260902052748 65 120 3.0 3.0 0.00 0.00 0.00 48 1004.0
20260902052244 66 112 5.0 6.0 0.00 0.00 0.00 47 1004.1
20260902051744 66 127 4.0 5.0 0.00 0.00 0.00 47 1003.7
20260902051238 67 119 4.0 5.0 0.00 0.00 0.00 46 1004.1
20260902050733 67 127 5.0 7.0 0.00 0.00 0.00 46 1003.9
20260902050228 67 124 7.0 7.0 0.00 0.00 0.00 46 1004.3
20260902045728 67 129 6.0 6.0 0.00 0.00 0.00 45 1004.0
20260902045224 67 133 5.0 6.0 0.00 0.00 0.00 45 1004.0
20260902044720 68 125 4.0 5.0 0.00 0.00 0.00 45 1003.7
20260902044215 68 114 5.0 6.0 0.00 0.00 0.00 45 1004.3
20260902043715 68 109 5.0 6.0 0.00 0.00 0.00 45 1004.0
20260902043211 68 114 7.0 9.0 0.00 0.00 0.00 43 1004.0
20260902042710 68 100 9.0 9.0 0.00 0.00 0.00 43 1004.1
20260902042205 69 117 9.0 9.0 0.00 0.00 0.00 43 1004.0
20260902041701 69 105 6.0 8.0 0.00 0.00 0.00 44 1004.0
20260902041155 69 98 6.0 7.0 0.00 0.00 0.00 43 1004.2
20260902040654 69 112 5.0 6.0 0.00 0.00 0.00 44 1003.9
20260902040150 69 116 6.0 7.0 0.00 0.00 0.00 43 1004.1
20260902035648 69 109 5.0 7.0 0.00 0.00 0.00 43 1004.0
20260902035144 69 115 7.0 7.0 0.00 0.00 0.00 42 1004.1
20260902034643 69 120 6.0 7.0 0.00 0.00 0.00 42 1004.1
20260902034143 69 107 4.0 5.0 0.00 0.00 0.00 43 1004.2
20260902033642 69 115 7.0 8.0 0.00 0.00 0.00 42 1004.2
20260902033137 69 127 5.0 6.0 0.00 0.00 0.00 43 1004.4
20260902032636 70 124 5.0 6.0 0.00 0.00 0.00 42 1004.3
20260902032136 70 97 7.0 8.0 0.00 0.00 0.00 41 1004.4
20260902031630 71 120 5.0 6.0 0.00 0.00 0.00 40 1004.2
20260902031126 71 111 7.0 8.0 0.00 0.00 0.00 39 1004.2
20260902030621 71 118 7.0 8.0 0.00 0.00 0.00 39 1004.2
20260902030121 71 112 7.0 7.0 0.00 0.00 0.00 39 1004.2
20260902025620 71 112 5.0 6.0 0.00 0.00 0.00 39 1004.0
20260902025116 71 113 6.0 8.0 0.00 0.00 0.00 38 1004.0
20260902024611 71 129 6.0 7.0 0.00 0.00 0.00 38 1004.2
20260902024106 71 102 6.0 7.0 0.00 0.00 0.00 38 1004.0
20260902023602 72 114 6.0 7.0 0.00 0.00 0.00 36 1004.0
20260902023056 73 110 8.0 9.0 0.00 0.00 0.00 35 1004.0
20260902022556 73 108 9.0 9.0 0.00 0.00 0.00 35 1004.2
20260902022052 73 103 9.0 10.0 0.00 0.00 0.00 35 1004.2
20260902021547 73 116 5.0 6.0 0.00 0.00 0.00 36 1004.2
20260902021042 74 126 4.0 5.0 0.00 0.00 0.00 35 1004.0
20260902020538 75 112 4.0 5.0 0.00 0.00 0.00 34 1004.1
20260902020034 76 113 4.0 5.0 0.00 0.00 0.00 33 1004.3
20260902015529 76 105 4.0 5.0 0.00 0.00 0.00 32 1003.7
20260902015025 77 112 5.0 6.0 0.00 0.00 0.00 32 1004.0
20260902014521 76 125 3.0 3.0 0.00 0.00 0.00 33 1004.1
20260902014016 76 126 2.0 2.0 0.00 0.00 0.00 35 1004.0
20260902013511 78 140 1.0 1.0 0.00 0.00 0.00 35 1003.9
20260902013006 78 141 0.0 0.0 0.00 0.00 0.00 33 1003.9
20260902012501 79 141 0.0 0.0 0.00 0.00 0.00 33 1004.0
20260902011957 79 143 1.0 1.0 0.00 0.00 0.00 32 1004.0
20260902011452 80 147 2.0 2.0 0.00 0.00 0.00 31 1004.0
20260902010951 80 147 3.0 3.0 0.00 0.00 0.00 30 1004.1
20260902010447 80 160 3.0 3.0 0.00 0.00 0.00 30 1004.2
20260902005946 81 141 3.0 3.0 0.00 0.00 0.00 29 1004.2
20260902005445 81 207 5.0 7.0 0.00 0.00 0.00 26 1003.9
20260902004942 82 159 4.0 5.0 0.00 0.00 0.00 27 1003.9
20260902004441 82 168 4.0 5.0 0.00 0.00 0.00 25 1003.9
20260902003936 82 172 5.0 6.0 0.00 0.00 0.00 26 1004.2
20260902003436 82 137 3.0 3.0 0.00 0.00 0.00 27 1004.2
20260902002932 82 135 4.0 5.0 0.00 0.00 0.00 26 1004.4
20260902002427 82 140 5.0 6.0 0.00 0.00 0.00 26 1004.3
20260902001926 82 160 3.0 5.0 0.00 0.00 0.00 25 1004.4
20260902001421 82 191 4.0 6.0 0.00 0.00 0.00 25 1004.0
20260902000916 82 139 5.0 6.0 0.00 0.00 0.00 26 1004.1
20260902000414 82 145 3.0 3.0 0.00 0.00 0.00 25 1004.2
20260901235906 82 184 4.0 5.0 0.00 0.00 0.00 27 1004.4
20260901235401 82 182 9.0 10.0 0.00 0.00 0.00 26 1004.3
20260901234856 83 172 6.0 7.0 0.00 0.00 0.00 28 1004.3
20260901234350 82 126 3.0 3.0 0.00 0.00 0.00 28 1004.3
20260901233845 82 158 6.0 7.0 0.00 0.00 0.00 26 1004.3
20260901233341 82 152 6.0 7.0 0.00 0.00 0.00 27 1004.5
20260901232836 83 143 4.0 5.0 0.00 0.00 0.00 27 1004.3
20260901232331 82 158 3.0 3.0 0.00 0.00 0.00 28 1004.5
20260901231827 83 159 6.0 7.0 0.00 0.00 0.00 27 1004.4
20260901231323 83 166 5.0 6.0 0.00 0.00 0.00 27 1004.6
20260901230820 82 78 3.0 3.0 0.00 0.00 0.00 27 1004.7
20260901230319 83 133 8.0 9.0 0.00 0.00 0.00 27 1004.7
20260901225815 82 110 5.0 6.0 0.00 0.00 0.00 27 1004.6
20260901225314 82 103 9.0 9.0 0.00 0.00 0.00 27 1004.7
20260901224809 83 132 6.0 9.0 0.00 0.00 0.00 28 1004.9
20260901224306 83 148 3.0 3.0 0.00 0.00 0.00 27 1004.7
20260901223801 83 162 7.0 9.0 0.00 0.00 0.00 27 1004.9
20260901223256 83 175 6.0 7.0 0.00 0.00 0.00 27 1004.8
20260901222752 82 151 5.0 6.0 0.00 0.00 0.00 28 1004.9
20260901222248 82 138 6.0 7.0 0.00 0.00 0.00 27 1004.8
20260901221744 83 160 6.0 8.0 0.00 0.00 0.00 28 1005.1
20260901221239 83 168 7.0 7.0 0.00 0.00 0.00 27 1005.2
20260901220738 84 127 3.0 3.0 0.00 0.00 0.00 28 1005.3
20260901220232 85 99 2.0 2.0 0.00 0.00 0.00 27 1005.3
20260901215731 85 158 2.0 2.0 0.00 0.00 0.00 26 1005.3
20260901215232 84 208 3.0 3.0 0.00 0.00 0.00 27 1005.4